{"data":{"norad_id":62612,"epoch":"2026-09-22T17:01:22.704384Z","epoch_age_seconds":126804,"freshness":"FRESH","line1":"1 62612U 25009D   26265.70929056  .00006369  00000+0  22198-3 0  9990","line2":"2 62612  97.3966 347.2575 0001250  81.2750 278.8632 15.29995917 93828","mean_motion":15.29995917,"eccentricity":0.000125,"inclination_deg":97.3966,"raan_deg":347.2575,"arg_perigee_deg":81.275,"mean_anomaly_deg":278.8632,"bstar":0.00022198,"rev_number":9382,"period_min":94.11789822443,"perigee_km":474.96774701743,"apogee_km":476.68123739048,"semimajor_km":6853.961492204,"source":"CELESTRAK","updated_at":"2026-09-23T09:00:21.499247Z"}}